,

(GMT )
Harrow

Weather History for CXHA - August, 2012

Change the Weather History Date:

Friday, August 3, 2012

  Actual Average Record
Temperature  
Mean Temperature 78 °F -  
Max Temperature 89 °F - - ()
Min Temperature 66 °F - - ()
Cooling Degree Days 12    
Growing Degree Days 28 (Base 50)    
Moisture  
Dew Point 68 °F    
Average Humidity 72    
Maximum Humidity 97    
Minimum Humidity 40    
Precipitation  
Precipitation 0.00 in - - ()
Sea Level Pressure  
Sea Level Pressure 29.89 in    
Wind  
Wind Speed 3 mph ()    
Max Wind Speed 7 mph    
Max Gust Speed -    
T = Trace of Precipitation, MM = Missing Value Source: Averaged Metar Reports

Daily Weather History Graph

Daily Weather History Graph

Search for Another Location

Airport or City:

Trip Planner

Search our weather history database for the weather conditions in past years. The results will help you decide how hot, cold, wet, or windy it might be!

Date:

Astronomy

Aug. 03, 2012 Rise Set
Actual Time 6:27 AM EDT 8:47 PM EDT
Civil Twilight 5:56 AM EDT 9:18 PM EDT
Nautical Twilight 5:17 AM EDT 9:57 PM EDT
Astronomical Twilight 4:34 AM EDT 10:39 PM EDT
Moon 9:21 PM EDT (8/3) 8:12 AM EDT (8/3)
Length of Visible Light 15h 22m
Length of Day
14h 19m
Full, 97% of the Moon is Illuminated
Aug 3
Full
Aug 9
Last Quarter
Aug 17
New
Aug 24
First Quarter
Aug 31
Full

Hourly Weather History & Observations

Time (EDT) Temp. Heat Index Dew Point Humidity Pressure Visibility Wind Dir Wind Speed Gust Speed Precip Events Conditions
12:00 AM 72.7 °F - 69.6 °F 90% 29.85 in - SSE 3.5 mph - N/A   Unknown
1:00 AM 72.5 °F - 70.0 °F 92% 29.85 in - SSE 3.5 mph - N/A   Unknown
2:00 AM 72 °F - 70 °F 92% 29.85 in - SSE 2.3 mph - -  
2:00 AM 72.0 °F - 70.2 °F 94% 29.85 in - SSE 2.3 mph - N/A   Unknown
3:00 AM 72.3 °F - 70.3 °F 93% 29.86 in - South 1.2 mph - N/A   Unknown
4:00 AM 69.3 °F - 67.5 °F 94% 29.87 in - North 1.2 mph - N/A   Unknown
5:00 AM 68.9 °F - 67.8 °F 96% 29.87 in - NNE 2.3 mph - N/A   Unknown
6:00 AM 67.5 °F - 66.4 °F 96% 29.86 in - Calm Calm - N/A   Unknown
7:00 AM 67.5 °F - 66.6 °F 97% 29.88 in - NE 3.5 mph - N/A   Unknown
8:00 AM 72 °F - 71 °F 94% 29.90 in - ENE 3.5 mph - -  
8:00 AM 72.1 °F - 70.7 °F 95% 29.90 in - ENE 3.5 mph - N/A   Unknown
9:00 AM 79.2 °F - 73.6 °F 83% 29.91 in - East 1.2 mph - N/A   Unknown
10:00 AM 82.2 °F 86.0 °F 69.8 °F 66% 29.91 in - SSE 4.6 mph - N/A   Unknown
11:00 AM 83.1 °F 88.1 °F 71.4 °F 68% 29.91 in - SSE 5.8 mph - N/A   Unknown
12:00 PM 85.1 °F 88.5 °F 68.2 °F 57% 29.92 in - SE 4.6 mph - N/A   Unknown
1:00 PM 84.9 °F 87.4 °F 66.4 °F 54% 29.91 in - SSE 6.9 mph - N/A   Unknown
2:00 PM 86 °F - 65 °F 40% 29.91 in - SE 5.8 mph - -  
2:00 PM 86.2 °F 87.9 °F 65.1 °F 49% 29.91 in - SE 5.8 mph - N/A   Unknown
3:00 PM 86.9 °F 88.6 °F 64.8 °F 48% 29.91 in - ESE 5.8 mph - N/A   Unknown
4:00 PM 87.6 °F 89.1 °F 64.2 °F 46% 29.90 in - SE 5.8 mph - N/A   Unknown
5:00 PM 88.7 °F 88.8 °F 61.2 °F 40% 29.90 in - SE 3.5 mph - N/A   Unknown
6:00 PM 88.5 °F 88.9 °F 62.1 °F 41% 29.89 in - ESE 3.5 mph - N/A   Unknown
7:00 PM 85.5 °F 89.8 °F 69.6 °F 59% 29.88 in - SE 3.5 mph - N/A   Unknown
8:00 PM 82 °F - 67 °F 52% 29.90 in - ESE 1.2 mph - -  
8:00 PM 82.2 °F 84.7 °F 67.1 °F 60% 29.90 in - ESE 1.2 mph - N/A   Unknown
9:00 PM 77.7 °F - 65.8 °F 67% 29.91 in - ESE 1.2 mph - N/A   Unknown
10:00 PM 75.6 °F - 66.7 °F 74% 29.92 in - ESE 1.2 mph - N/A   Unknown
11:00 PM 75.9 °F - 66.7 °F 73% 29.92 in - ESE 1.2 mph - N/A   Unknown